Date String (YYYY-MM-DD hh:mm:ss) UTC,Instrument flags,Ambient pressure (hPa),Sample flow (lpm),Bypass flow (lpm),Sample temperature (°C),Ambient temperature (°C),ASC tube jacket temperature (°C),LED temperature (°C),Box temperature (°C),Sample RH (%),Span deviation,Mass concentration (μg/m³),Mass concentration (μg/m³),Mass concentration (μg/m³)
DateTimeUTC,F1_M11,P_M11,Q1_M11,Q2_M11,T1_M11,T2_M11,T3_M11,T4_M11,T5_M11,U1_M11,ZSPAN_M11,X0_M11,X2_M11,X1_M11
2022-12-30 01:00:00,,0819.2,4.98,0.00,22.3,22.5,00.0,30.9,24.2,07.8,0000.0,0003.01,0000.71,0000.50
2022-12-30 01:01:00,,0819.1,4.98,0.00,22.2,21.8,00.0,31.0,24.0,07.6,0000.0,0003.14,0000.71,0000.50
2022-12-30 01:02:00,,0819.1,5.04,0.00,22.2,21.3,00.0,31.0,23.9,07.8,0000.0,0002.65,0000.70,0000.50
2022-12-30 01:03:00,,0819.2,5.01,0.00,22.1,21.0,00.0,31.0,23.8,07.7,0000.0,0002.66,0000.70,0000.51
2022-12-30 01:04:00,,0819.2,4.99,0.00,22.1,20.7,00.0,31.0,23.6,07.5,0000.0,0002.56,0000.67,0000.51
2022-12-30 01:05:00,,0819.3,4.99,0.00,22.0,20.5,00.0,30.9,23.5,07.7,0000.0,0002.56,0000.66,0000.51
2022-12-30 01:06:00,,0819.2,5.02,0.00,22.0,20.4,00.0,30.9,23.5,07.8,0000.0,0001.70,0000.66,0000.50
2022-12-30 01:07:00,,0819.3,5.03,0.00,21.9,20.2,00.0,30.9,23.4,07.7,0000.0,0001.59,0000.66,0000.50
2022-12-30 01:08:00,,0819.3,4.96,0.00,21.9,20.1,00.0,30.9,23.3,08.0,0000.0,0001.54,0000.64,0000.50
2022-12-30 01:09:00,,0819.1,5.03,0.00,21.8,20.1,00.0,30.8,23.3,08.2,0000.0,0001.53,0000.64,0000.50
2022-12-30 01:10:00,,0819.2,5.02,0.00,21.9,21.0,00.0,30.8,23.6,07.8,0000.0,0001.53,0000.63,0000.50
2022-12-30 01:11:00,,0819.1,5.01,0.00,22.0,22.0,00.0,30.8,24.0,07.6,0000.0,0001.45,0000.65,0000.50
2022-12-30 01:12:00,,0819.1,4.95,0.00,22.2,22.9,00.0,30.8,24.2,07.8,0000.0,0001.02,0000.63,0000.50
2022-12-30 01:13:00,,0819.3,5.01,0.00,22.3,22.8,00.0,30.9,24.3,07.5,0000.0,0001.00,0000.62,0000.50
2022-12-30 01:14:00,,0819.1,5.03,0.00,22.3,22.1,00.0,31.0,24.1,07.5,0000.0,0001.03,0000.63,0000.50
2022-12-30 01:15:00,,0819.2,5.01,0.00,22.2,21.6,00.0,31.0,24.0,07.4,0000.0,0001.08,0000.64,0000.50
2022-12-30 01:16:00,,0819.3,4.97,0.00,22.2,21.2,00.0,31.0,23.8,07.8,0000.0,0001.04,0000.63,0000.50
2022-12-30 01:17:00,,0819.1,4.98,0.00,22.2,20.9,00.0,31.0,23.7,07.7,0000.0,0001.00,0000.62,0000.49
2022-12-30 01:18:00,,0819.2,4.99,0.00,22.1,20.6,00.0,31.0,23.6,07.8,0000.0,0000.98,0000.61,0000.50
2022-12-30 01:19:00,,0819.3,5.04,0.00,22.0,20.3,00.0,30.9,23.5,07.8,0000.0,0000.99,0000.62,0000.50
2022-12-30 01:20:00,,0819.3,5.03,0.00,22.0,20.2,00.0,30.9,23.4,07.9,0000.0,0001.02,0000.63,0000.50
2022-12-30 01:21:00,,0819.3,5.03,0.00,22.0,20.8,00.0,30.9,23.6,07.9,0000.0,0001.12,0000.67,0000.51
2022-12-30 01:22:00,,0819.3,4.98,0.00,22.1,21.9,00.0,30.8,23.9,07.5,0000.0,0001.35,0000.71,0000.50
2022-12-30 01:23:00,,0819.3,4.98,0.00,22.2,22.8,00.0,30.9,24.2,07.4,0000.0,0001.28,0000.69,0000.51
2022-12-30 01:24:00,,0819.4,5.03,0.00,22.3,22.8,00.0,30.9,24.3,07.5,0000.0,0001.28,0000.69,0000.51
2022-12-30 01:25:00,,0819.4,5.01,0.00,22.3,22.1,00.0,31.0,24.1,07.8,0000.0,0001.26,0000.68,0000.51
2022-12-30 01:26:00,,0819.3,4.99,0.00,22.2,21.5,00.0,31.0,23.9,07.6,0000.0,0001.22,0000.67,0000.51
2022-12-30 01:27:00,,0819.4,4.97,0.00,22.2,21.0,00.0,31.0,23.7,07.5,0000.0,0001.21,0000.67,0000.52
2022-12-30 01:28:00,,0819.5,5.03,0.00,22.1,20.7,00.0,31.0,23.6,07.7,0000.0,0001.16,0000.65,0000.52
2022-12-30 01:29:00,,0819.5,5.05,0.00,22.0,20.5,00.0,31.0,23.5,07.5,0000.0,0001.15,0000.65,0000.52
2022-12-30 01:30:00,,0819.6,4.99,0.00,22.0,20.3,00.0,31.0,23.4,07.7,0000.0,0001.17,0000.65,0000.52
2022-12-30 01:31:00,,0819.5,4.98,0.00,21.9,20.1,00.0,30.9,23.3,07.5,0000.0,0001.18,0000.65,0000.53
2022-12-30 01:32:00,,0819.4,4.99,0.00,21.9,20.0,00.0,30.9,23.3,07.4,0000.0,0001.22,0000.63,0000.53
2022-12-30 01:33:00,,0819.7,5.03,0.00,21.9,20.9,00.0,30.8,23.5,07.4,0000.0,0001.01,0000.60,0000.53
2022-12-30 01:34:00,,0819.7,5.04,0.00,22.0,22.0,00.0,30.8,23.9,07.9,0000.0,0001.04,0000.63,0000.53
2022-12-30 01:35:00,,0819.6,5.00,0.00,22.2,22.7,00.0,30.9,24.1,07.5,0000.0,0001.13,0000.66,0000.54
2022-12-30 01:36:00,,0819.6,4.97,0.00,22.2,22.5,00.0,30.9,24.2,07.5,0000.0,0001.18,0000.68,0000.54
2022-12-30 01:37:00,,0819.7,4.99,0.00,22.2,21.8,00.0,31.0,23.9,07.6,0000.0,0001.22,0000.69,0000.55
2022-12-30 01:38:00,,0819.7,5.03,0.00,22.1,21.3,00.0,31.0,23.8,07.8,0000.0,0001.29,0000.70,0000.55
2022-12-30 01:39:00,,0819.7,5.02,0.00,22.1,20.9,00.0,31.0,23.6,07.4,0000.0,0001.40,0000.71,0000.55
2022-12-30 01:40:00,,0819.8,4.99,0.00,22.0,20.6,00.0,31.0,23.5,07.6,0000.0,0001.50,0000.75,0000.56
2022-12-30 01:41:00,,0819.8,4.97,0.00,22.0,20.4,00.0,30.9,23.3,07.5,0000.0,0001.54,0000.77,0000.56
2022-12-30 01:42:00,,0819.7,5.03,0.00,21.9,20.1,00.0,30.9,23.2,07.8,0000.0,0001.54,0000.77,0000.57
2022-12-30 01:43:00,,0819.8,5.05,0.00,21.8,20.3,00.0,30.8,23.3,07.6,0000.0,0001.45,0000.77,0000.58
2022-12-30 01:44:00,,0819.8,4.97,0.00,21.9,21.5,00.0,30.8,23.6,07.6,0000.0,0001.40,0000.76,0000.58
2022-12-30 01:45:00,,0819.9,4.98,0.00,22.0,22.4,00.0,30.8,23.9,07.8,0000.0,0001.32,0000.73,0000.58
2022-12-30 01:46:00,,0819.9,5.04,0.00,22.2,22.9,00.0,30.9,24.1,07.8,0000.0,0001.27,0000.73,0000.58
2022-12-30 01:47:00,,0819.8,5.01,0.00,22.2,22.1,00.0,30.9,24.0,07.6,0000.0,0001.21,0000.72,0000.59
2022-12-30 01:48:00,,0819.8,4.98,0.00,22.1,21.3,00.0,31.0,23.7,07.6,0000.0,0001.18,0000.71,0000.59
2022-12-30 01:49:00,,0819.8,4.97,0.00,22.0,20.6,00.0,31.0,23.4,07.7,0000.0,0001.15,0000.70,0000.58
2022-12-30 01:50:00,,0819.8,4.98,0.00,21.9,20.1,00.0,30.9,23.2,07.9,0000.0,0001.64,0000.69,0000.57
2022-12-30 01:51:00,,0819.7,5.00,0.00,21.7,19.6,00.0,30.9,23.0,07.9,0000.0,0002.34,0000.67,0000.57
2022-12-30 01:52:00,,0819.6,5.08,0.00,21.6,19.2,00.0,30.8,22.8,08.1,0000.0,0002.30,0000.66,0000.57
2022-12-30 01:53:00,,0819.5,4.97,0.00,21.5,19.1,00.0,30.8,22.7,08.1,0000.0,0002.27,0000.64,0000.56
2022-12-30 01:54:00,,0819.4,5.01,0.00,21.5,19.4,00.0,30.7,22.8,08.2,0000.0,0002.29,0000.64,0000.55
2022-12-30 01:55:00,,0819.4,5.00,0.00,21.5,20.6,00.0,30.6,23.1,08.4,0000.0,0002.42,0000.68,0000.54
2022-12-30 01:56:00,,0819.5,4.99,0.00,21.7,21.8,00.0,30.6,23.5,07.8,0000.0,0002.47,0000.70,0000.54
2022-12-30 01:57:00,,0819.6,4.97,0.00,21.8,22.5,00.0,30.6,23.7,07.6,0000.0,0002.52,0000.71,0000.53
2022-12-30 01:58:00,,0819.6,5.01,0.00,21.8,21.8,00.0,30.7,23.6,07.8,0000.0,0002.49,0000.69,0000.52
2022-12-30 01:59:00,,0819.5,5.01,0.00,21.7,20.8,00.0,30.7,23.3,07.7,0000.0,0002.48,0000.68,0000.51
